CW0927 Weather Reports


Display with metric or nautical units.
time (UTC)temp
F
wind
direction
speed
MPH
gust
MPH
rain 1hr
in
rain 24hr
in
rain mn
in
humidity
%
barometer
mb
20260906133334 82 245 3.0 5.0 0.00 0.00 0.00 88 1015.1
20260906132842 82 240 1.0 3.0 0.00 0.00 0.00 89 1015.1
20260906132346 81 258 2.0 3.0 0.00 0.00 0.00 90 1015.2
20260906131850 81 254 0.0 3.0 0.00 0.00 0.00 91 1015.4
20260906131352 81 264 0.0 3.0 0.00 0.00 0.00 91 1015.3
20260906130832 81 251 1.0 3.0 0.00 0.00 0.00 92 1015.3
20260906130334 80 252 0.0 3.0 0.00 0.00 0.00 92 1015.3
20260906125834 80 247 0.0 3.0 0.00 0.00 0.00 93 1015.3
20260906125331 80 271 1.0 3.0 0.00 0.00 0.00 93 1015.3
20260906124832 79 241 0.0 2.0 0.00 0.00 0.00 93 1015.3
20260906124335 79 275 0.0 2.0 0.00 0.00 0.00 94 1015.3
20260906123837 79 283 0.0 0.0 0.00 0.00 0.00 93 1015.3
20260906123341 79 196 0.0 0.0 0.00 0.00 0.00 93 1015.3
20260906122840 79 196 0.0 0.0 0.00 0.00 0.00 93 1015.2
20260906122323 78 196 0.0 1.0 0.00 0.00 0.00 93 1015.1
20260906121824 78 196 0.0 1.0 0.00 0.00 0.00 93 1015.0
20260906121325 78 196 0.0 0.0 0.00 0.00 0.00 94 1015.0
20260906120827 78 196 0.0 0.0 0.00 0.00 0.00 94 1015.0
20260906120331 78 196 0.0 0.0 0.00 0.00 0.00 94 1015.0
20260906115834 78 196 0.0 0.0 0.00 0.00 0.00 94 1015.0
20260906115339 78 196 0.0 0.0 0.00 0.00 0.00 94 1014.9
20260906114843 77 196 0.0 0.0 0.00 0.00 0.00 94 1014.8
20260906114341 76 196 0.0 0.0 0.00 0.00 0.00 93 1014.8
20260906113845 76 196 0.0 0.0 0.00 0.00 0.00 93 1014.9
20260906113349 76 196 0.0 0.0 0.00 0.00 0.00 93 1014.9
20260906112852 76 196 0.0 0.0 0.00 0.00 0.00 92 1014.8
20260906112403 76 196 0.0 0.0 0.00 0.00 0.00 92 1014.7
20260906111825 76 196 0.0 0.0 0.00 0.00 0.00 92 1014.6
20260906111330 76 196 0.0 0.0 0.00 0.00 0.00 92 1014.6
20260906110833 76 196 0.0 0.0 0.00 0.00 0.00 92 1014.5
20260906110339 76 196 0.0 0.0 0.00 0.00 0.00 92 1014.4
20260906105823 76 196 0.0 0.0 0.00 0.01 0.00 92 1014.3
20260906105325 76 196 0.0 0.0 0.00 0.01 0.00 92 1014.3
20260906104829 76 196 0.0 0.0 0.00 0.01 0.00 92 1014.2
20260906104334 76 196 0.0 0.0 0.00 0.01 0.00 92 1014.1
20260906103838 76 196 0.0 0.0 0.00 0.01 0.00 91 1014.0
20260906103339 76 196 0.0 0.0 0.00 0.01 0.00 91 1013.9
20260906102839 76 196 0.0 0.0 0.00 0.01 0.00 91 1013.9
20260906102348 76 196 0.0 0.0 0.00 0.01 0.00 91 1013.9
20260906101849 76 196 0.0 0.0 0.00 0.01 0.00 91 1013.7
20260906101350 76 196 0.0 0.0 0.00 0.01 0.00 91 1013.6
20260906100839 77 196 0.0 0.0 0.00 0.01 0.00 91 1013.7
20260906100341 77 196 0.0 0.0 0.00 0.01 0.00 91 1013.7
20260906095840 77 196 0.0 0.0 0.00 0.01 0.00 91 1013.7
20260906095322 77 196 0.0 0.0 0.00 0.01 0.00 91 1013.5
20260906094824 77 196 0.0 0.0 0.00 0.01 0.00 91 1013.5
20260906094326 77 196 0.0 0.0 0.00 0.01 0.00 91 1013.5
20260906093828 77 196 0.0 0.0 0.00 0.01 0.00 91 1013.5
20260906093328 77 196 0.0 0.0 0.00 0.01 0.00 91 1013.5
20260906092828 77 196 0.0 0.0 0.00 0.01 0.00 91 1013.3
20260906092331 77 196 0.0 0.0 0.00 0.01 0.00 91 1013.3
20260906091832 77 196 0.0 0.0 0.00 0.01 0.00 91 1013.3
20260906091335 77 196 0.0 0.0 0.00 0.01 0.00 91 1013.2
20260906090837 77 196 0.0 0.0 0.00 0.01 0.00 91 1013.2
20260906090340 77 196 0.0 0.0 0.00 0.01 0.00 91 1013.2
20260906085841 77 196 0.0 0.0 0.00 0.01 0.00 91 1013.2
20260906085322 78 196 0.0 1.0 0.00 0.01 0.00 91 1013.2
20260906084825 78 196 0.0 1.0 0.00 0.01 0.00 91 1013.0
20260906084356 78 196 0.0 1.0 0.00 0.01 0.00 91 1013.0
20260906083845 78 196 0.0 1.0 0.00 0.01 0.00 90 1013.0
20260906083345 78 196 0.0 0.0 0.00 0.01 0.00 90 1013.0
20260906082848 78 196 0.0 0.0 0.00 0.01 0.00 90 1013.1
20260906082330 78 161 0.0 0.0 0.00 0.01 0.00 90 1013.1
20260906081902 78 161 0.0 0.0 0.00 0.01 0.00 90 1013.1
20260906081324 78 161 0.0 1.0 0.00 0.01 0.00 90 1013.0
20260906080855 78 161 0.0 1.0 0.00 0.01 0.00 90 1013.0
20260906080339 78 161 0.0 2.0 0.00 0.01 0.00 90 1012.9
20260906075840 78 161 0.0 2.0 0.00 0.02 0.00 90 1012.9
20260906075342 78 194 0.0 0.0 0.00 0.02 0.00 90 1012.9
20260906074845 78 194 0.0 0.0 0.00 0.02 0.00 89 1013.0
20260906074326 78 194 0.0 0.0 0.00 0.02 0.00 89 1013.0
20260906073829 78 194 0.0 0.0 0.00 0.02 0.00 89 1013.0
20260906073327 78 194 0.0 0.0 0.00 0.02 0.00 89 1013.2
20260906072828 78 194 0.0 0.0 0.00 0.02 0.00 89 1013.3
20260906072330 78 194 0.0 0.0 0.00 0.02 0.00 89 1013.3
20260906071832 78 194 0.0 0.0 0.00 0.02 0.00 89 1013.3
20260906071334 78 194 0.0 0.0 0.00 0.02 0.00 89 1013.3
20260906070843 78 194 0.0 0.0 0.00 0.02 0.00 89 1013.4
20260906070346 79 194 0.0 1.0 0.00 0.02 0.00 89 1013.3
20260906065846 79 194 0.0 1.0 0.00 0.02 0.00 89 1013.3
20260906065328 79 196 0.0 0.0 0.00 0.02 0.00 89 1013.3
20260906064829 79 196 0.0 1.0 0.00 0.02 0.00 89 1013.5
20260906064331 79 196 0.0 1.0 0.00 0.02 0.00 89 1013.6
20260906063831 79 196 0.0 2.0 0.00 0.02 0.00 89 1013.7
20260906063402 79 196 0.0 2.0 0.00 0.02 0.00 89 1013.7
20260906062840 79 243 0.0 1.0 0.00 0.02 0.00 89 1013.8
20260906062340 79 211 0.0 1.0 0.00 0.02 0.00 88 1013.9
20260906061911 79 188 0.0 1.0 0.00 0.02 0.00 88 1013.9
20260906061332 79 190 0.0 1.0 0.00 0.02 0.00 88 1014.0
20260906060833 79 199 0.0 1.0 0.00 0.02 0.00 88 1014.1
20260906060338 79 199 0.0 1.0 0.00 0.02 0.00 88 1014.0
20260906055836 79 213 0.0 1.0 0.00 0.02 0.00 88 1014.2
20260906055339 79 208 0.0 1.0 0.00 0.02 0.00 88 1014.2
20260906054842 79 224 0.0 3.0 0.00 0.02 0.00 87 1014.3
20260906054408 80 224 0.0 3.0 0.00 0.02 0.00 87 1014.2
20260906053850 80 213 0.0 1.0 0.00 0.02 0.00 87 1014.2
20260906053331 80 213 0.0 1.0 0.00 0.02 0.00 87 1014.4
20260906052900 80 232 0.0 1.0 0.00 0.02 0.00 87 1014.4
20260906052341 80 229 0.0 1.0 0.00 0.02 0.00 87 1014.4
20260906051823 80 229 0.0 1.0 0.00 0.02 0.00 87 1014.6
20260906051325 80 207 0.0 1.0 0.00 0.02 0.00 86 1014.7
20260906050827 80 259 0.0 1.0 0.00 0.02 0.00 86 1014.7
20260906050329 80 189 0.0 2.0 0.00 0.02 0.00 86 1014.7
20260906045830 80 213 0.0 2.0 0.00 0.02 0.00 86 1014.8
20260906045332 81 242 0.0 1.0 0.00 0.02 0.00 85 1014.8
20260906044830 81 236 0.0 1.0 0.00 0.02 0.00 85 1014.9
20260906044400 81 174 0.0 1.0 0.00 0.02 0.00 85 1014.9
20260906043909 81 189 0.0 1.0 0.00 0.02 0.00 85 1014.9
20260906043350 81 189 0.0 3.0 0.00 0.02 0.00 85 1014.9
20260906042830 81 166 0.0 2.0 0.00 0.02 0.00 84 1014.9
20260906042330 81 185 0.0 3.0 0.00 0.02 0.00 84 1014.9
20260906041830 81 302 0.0 3.0 0.00 0.02 0.00 84 1014.9
20260906041340 81 162 0.0 3.0 0.00 0.02 0.00 83 1014.9
20260906040823 81 146 0.0 7.0 0.00 0.02 0.00 83 1015.0
20260906040355 81 194 1.0 7.0 0.00 0.02 0.00 83 1015.0
20260906035830 81 229 2.0 8.0 0.00 0.02 0.02 82 1015.1
20260906035333 81 153 2.0 8.0 0.00 0.02 0.02 82 1015.0
20260906034838 81 126 2.0 6.0 0.00 0.02 0.02 82 1015.1
20260906034322 82 188 1.0 2.0 0.00 0.02 0.02 82 1015.1
20260906033826 82 203 0.0 2.0 0.00 0.02 0.02 81 1015.1
20260906033331 82 180 0.0 2.0 0.00 0.02 0.02 81 1015.1
20260906032840 82 202 0.0 4.0 0.00 0.02 0.02 81 1015.1
20260906032411 82 190 0.0 6.0 0.00 0.02 0.02 81 1015.0
20260906031854 82 144 0.0 3.0 0.00 0.02 0.02 81 1015.0
20260906031337 82 190 1.0 3.0 0.00 0.02 0.02 81 1015.0
20260906030841 82 169 1.0 6.0 0.00 0.02 0.02 81 1015.0
20260906030346 82 159 1.0 6.0 0.00 0.02 0.02 82 1015.0
20260906025842 82 166 1.0 3.0 0.00 0.02 0.02 82 1015.0
20260906025346 82 171 1.0 2.0 0.00 0.02 0.02 82 1015.1
20260906024851 82 158 0.0 4.0 0.00 0.02 0.02 82 1015.1
20260906024333 81 156 1.0 4.0 0.00 0.02 0.02 82 1015.0
20260906023837 82 132 1.0 2.0 0.00 0.02 0.02 82 1015.0
20260906023342 82 161 0.0 5.0 0.00 0.02 0.02 82 1015.0
20260906022823 82 126 1.0 5.0 0.00 0.02 0.02 82 1014.9
20260906022323 82 178 0.0 2.0 0.00 0.02 0.02 82 1014.8
20260906021823 82 180 1.0 2.0 0.00 0.02 0.02 82 1014.9
20260906021323 82 155 1.0 2.0 0.00 0.02 0.02 82 1014.8
20260906020823 82 186 0.0 1.0 0.00 0.02 0.02 82 1014.9
20260906020351 82 186 0.0 1.0 0.00 0.02 0.02 82 1014.9
20260906015850 82 186 0.0 2.0 0.00 0.02 0.02 82 1015.0
20260906015324 82 159 0.0 3.0 0.00 0.02 0.02 81 1014.9
20260906014824 82 159 1.0 3.0 0.00 0.02 0.02 81 1015.0
20260906014325 82 167 0.0 5.0 0.00 0.02 0.02 81 1015.0
20260906013853 82 143 1.0 5.0 0.00 0.02 0.02 81 1014.8
20260906013332 82 173 2.0 8.0 0.00 0.02 0.02 80 1014.7
20260906012832 82 148 4.0 8.0 0.00 0.02 0.02 80 1014.6
20260906012330 82 165 2.0 7.0 0.00 0.02 0.02 80 1014.6
20260906011903 82 130 3.0 7.0 0.00 0.02 0.02 81 1014.7
20260906011323 82 134 1.0 3.0 0.00 0.02 0.02 81 1014.5
20260906010827 82 152 0.0 2.0 0.00 0.02 0.02 81 1014.5
20260906010332 83 103 0.0 0.0 0.00 0.02 0.02 81 1014.5
20260906005829 83 103 0.0 0.0 0.00 0.02 0.02 81 1014.4
20260906005333 83 103 0.0 0.0 0.00 0.02 0.02 81 1014.4
20260906004836 83 103 0.0 2.0 0.00 0.02 0.02 80 1014.4
20260906004340 82 103 1.0 2.0 0.00 0.02 0.02 80 1014.3
20260906003824 83 103 0.0 0.0 0.00 0.02 0.02 81 1014.3
20260906003329 83 103 0.0 0.0 0.00 0.02 0.02 80 1014.3
20260906002830 83 103 0.0 1.0 0.00 0.02 0.02 80 1014.2
20260906002335 83 103 0.0 2.0 0.00 0.02 0.02 80 1014.2
20260906001841 83 59 0.0 1.0 0.00 0.02 0.02 81 1014.1
20260906001344 83 59 0.0 0.0 0.00 0.02 0.02 80 1014.0
20260906000848 83 59 0.0 0.0 0.00 0.02 0.02 79 1014.1
20260906000333 83 59 0.0 0.0 0.00 0.02 0.02 79 1014.1
20260905235833 83 59 0.0 1.0 0.00 0.02 0.02 79 1014.0
20260905235332 83 59 0.0 1.0 0.00 0.02 0.02 80 1014.0
20260905234836 83 59 0.0 2.0 0.00 0.02 0.02 79 1014.1
20260905234408 84 53 1.0 2.0 0.00 0.02 0.02 79 1014.1
20260905233852 84 39 0.0 0.0 0.00 0.02 0.02 79 1014.1
20260905233336 84 39 0.0 0.0 0.00 0.02 0.02 79 1014.1
20260905232837 84 39 0.0 1.0 0.00 0.02 0.02 79 1014.2
20260905232340 84 39 0.0 1.0 0.00 0.02 0.02 79 1014.1
20260905231824 85 46 0.0 1.0 0.00 0.02 0.02 78 1014.2
20260905231329 85 46 0.0 1.0 0.00 0.02 0.02 78 1014.1
20260905230834 85 46 0.0 1.0 0.00 0.02 0.02 79 1014.1
20260905230340 85 46 0.0 2.0 0.00 0.02 0.02 78 1014.2
20260905225841 85 55 0.0 2.0 0.00 0.03 0.02 78 1014.3
20260905225325 85 53 1.0 2.0 0.00 0.03 0.02 78 1014.3
20260905224828 85 48 0.0 2.0 0.00 0.03 0.02 78 1014.3
20260905224329 85 48 0.0 0.0 0.00 0.03 0.02 77 1014.2
20260905223831 85 48 0.0 0.0 0.00 0.03 0.02 78 1014.1
20260905223331 85 48 0.0 1.0 0.00 0.03 0.02 78 1014.0
20260905222829 86 48 0.0 1.0 0.00 0.03 0.02 77 1014.0
20260905222329 86 48 0.0 1.0 0.00 0.03 0.02 78 1014.0
20260905221829 86 48 0.0 1.0 0.00 0.03 0.02 77 1014.0
20260905221329 86 55 0.0 1.0 0.00 0.03 0.02 76 1014.1
20260905220829 87 55 0.0 2.0 0.00 0.03 0.02 76 1013.9
20260905220340 87 55 0.0 2.0 0.00 0.03 0.02 76 1013.8
20260905215838 87 62 0.0 2.0 0.00 0.03 0.02 77 1013.8
20260905215341 87 11 0.0 1.0 0.00 0.03 0.02 76 1013.8
20260905214843 86 11 0.0 2.0 0.00 0.03 0.02 76 1014.0
20260905214341 86 11 1.0 2.0 0.00 0.03 0.02 76 1014.2
20260905213846 86 39 1.0 2.0 0.00 0.03 0.02 76 1014.1
20260905213329 86 33 0.0 2.0 0.00 0.03 0.02 75 1014.1
20260905212830 86 88 0.0 2.0 0.00 0.03 0.02 76 1013.9
20260905212401 87 92 0.0 3.0 0.00 0.03 0.02 76 1014.0
20260905211842 87 86 1.0 3.0 0.00 0.03 0.02 75 1014.2
20260905211346 87 348 0.0 2.0 0.00 0.03 0.02 76 1014.3
20260905210849 87 348 0.0 2.0 0.00 0.03 0.02 75 1014.3
20260905210354 88 90 0.0 2.0 0.00 0.03 0.02 74 1014.5
20260905205835 88 19 1.0 2.0 0.00 0.55 0.02 74 1014.4
20260905205340 89 75 1.0 3.0 0.00 0.55 0.02 73 1014.3
20260905204824 89 26 1.0 3.0 0.00 0.55 0.02 72 1014.3
20260905204327 90 13 1.0 6.0 0.00 0.55 0.02 71 1014.3
20260905203827 91 334 1.0 6.0 0.00 0.55 0.02 70 1014.4
20260905203332 92 46 1.0 7.0 0.00 0.55 0.02 71 1014.5
20260905202833 91 5 1.0 7.0 0.00 0.55 0.02 68 1014.5
20260905202341 92 29 1.0 7.0 0.00 0.55 0.02 66 1014.5
20260905201843 93 288 1.0 7.0 0.00 0.55 0.02 63 1014.5
20260905201343 93 313 3.0 7.0 0.00 0.55 0.02 67 1014.4
20260905200843 93 292 1.0 4.0 0.00 0.55 0.02 68 1014.3
20260905200343 92 341 0.0 3.0 0.00 0.55 0.02 68 1014.4
20260905195843 93 74 1.0 4.0 0.00 0.55 0.02 67 1014.5
20260905195346 93 329 1.0 5.0 0.00 0.55 0.02 65 1014.4
20260905194849 93 9 1.0 3.0 0.00 0.55 0.02 67 1014.4
20260905194331 93 25 1.0 8.0 0.00 0.55 0.02 69 1014.5
20260905193830 93 32 1.0 6.0 0.00 0.55 0.02 67 1014.5
20260905193334 93 32 1.0 6.0 0.00 0.55 0.02 67 1014.7
20260905192905 92 26 2.0 6.0 0.00 0.55 0.02 67 1014.8
20260905192348 92 313 1.0 6.0 0.00 0.55 0.02 65 1014.6
20260905191830 91 333 2.0 11.0 0.00 0.55 0.02 63 1014.5
20260905191334 91 292 5.0 11.0 0.00 0.55 0.02 64 1014.5
20260905190837 90 319 2.0 11.0 0.00 0.55 0.02 67 1014.6
20260905190341 90 264 4.0 13.0 0.00 0.55 0.02 66 1014.5
20260905185843 90 24 5.0 13.0 0.00 0.55 0.02 63 1014.5
20260905185345 90 257 3.0 11.0 0.00 0.55 0.02 64 1014.7
20260905184850 90 298 5.0 14.0 0.00 0.55 0.02 65 1014.9
20260905184333 92 251 7.0 14.0 0.00 0.55 0.02 63 1014.8
20260905183832 94 248 7.0 12.0 0.00 0.55 0.02 64 1014.6
20260905183404 94 265 4.0 10.0 0.00 0.55 0.02 62 1014.5
20260905182847 94 273 4.0 10.0 0.00 0.55 0.02 63 1014.5
20260905182326 94 261 3.0 8.0 0.00 0.55 0.02 63 1014.6
20260905181826 94 265 2.0 8.0 0.00 0.55 0.02 65 1014.4
20260905181325 94 240 2.0 8.0 0.00 0.55 0.02 66 1014.5
20260905180824 93 186 1.0 10.0 0.00 0.55 0.02 66 1014.5
20260905180325 93 258 4.0 10.0 0.00 0.55 0.02 64 1014.4
20260905175821 93 184 1.0 11.0 0.00 0.55 0.02 67 1014.4
20260905175323 93 256 3.0 7.0 0.00 0.55 0.02 66 1014.6
20260905174823 93 251 2.0 9.0 0.00 0.55 0.02 64 1014.7
20260905174324 93 247 2.0 7.0 0.00 0.55 0.02 67 1014.8
20260905173822 93 287 2.0 6.0 0.00 0.55 0.02 67 1014.9
20260905173350 92 263 2.0 8.0 0.00 0.55 0.02 68 1015.1
20260905172827 92 243 2.0 8.0 0.00 0.55 0.02 67 1015.1
20260905172356 92 189 2.0 6.0 0.00 0.55 0.02 69 1015.2
20260905171837 92 242 1.0 5.0 0.00 0.55 0.02 71 1015.3
20260905171408 91 270 2.0 8.0 0.00 0.55 0.02 71 1015.4
20260905170848 91 261 3.0 8.0 0.00 0.55 0.02 71 1015.4
20260905170330 91 24 0.0 5.0 0.00 0.55 0.02 74 1015.5
20260905165830 91 268 2.0 6.0 0.00 0.55 0.02 72 1015.6
20260905165334 91 161 1.0 6.0 0.00 0.55 0.02 72 1015.6
20260905164902 90 256 2.0 4.0 0.00 0.55 0.02 73 1015.9
20260905164324 90 251 2.0 5.0 0.00 0.55 0.02 74 1016.0
20260905163854 90 306 1.0 4.0 0.00 0.55 0.02 75 1016.1
20260905163336 89 59 2.0 7.0 0.00 0.55 0.02 73 1016.1
20260905162835 89 248 3.0 7.0 0.00 0.55 0.02 74 1016.3
20260905162406 89 245 2.0 5.0 0.00 0.55 0.02 75 1016.4
20260905161849 89 281 2.0 4.0 0.00 0.55 0.02 74 1016.4
20260905161349 89 248 0.0 3.0 0.00 0.55 0.02 77 1016.4
20260905160849 88 273 1.0 5.0 0.00 0.55 0.02 78 1016.5
20260905160349 88 241 2.0 7.0 0.00 0.55 0.02 78 1016.6
20260905155848 87 252 1.0 5.0 0.00 0.55 0.02 79 1016.5
20260905155347 87 254 1.0 4.0 0.00 0.55 0.02 78 1016.5
20260905154846 87 263 2.0 4.0 0.00 0.55 0.02 78 1016.5
20260905154326 87 309 1.0 4.0 0.00 0.55 0.02 80 1016.5
20260905153825 87 261 1.0 3.0 0.00 0.55 0.02 81 1016.6
20260905153327 86 209 0.0 5.0 0.00 0.55 0.02 81 1016.6
20260905152825 86 258 2.0 8.0 0.00 0.55 0.02 81 1016.6
20260905152328 86 265 3.0 8.0 0.00 0.55 0.02 83 1016.8
20260905151828 86 289 1.0 6.0 0.00 0.55 0.02 84 1016.9
20260905151327 85 255 2.0 6.0 0.00 0.55 0.02 83 1017.0
20260905150829 85 280 1.0 4.0 0.00 0.55 0.02 85 1016.9
20260905150359 85 251 1.0 4.0 0.00 0.55 0.02 85 1016.9
20260905145840 85 242 2.0 4.0 0.00 0.55 0.02 85 1016.8
20260905145322 85 261 1.0 4.0 0.00 0.55 0.02 85 1016.8
20260905144848 85 242 1.0 4.0 0.00 0.55 0.02 86 1016.7
20260905144349 84 261 1.0 5.0 0.00 0.55 0.02 86 1016.7
20260905143830 84 246 2.0 5.0 0.00 0.55 0.02 86 1016.6
20260905143402 84 247 1.0 4.0 0.00 0.55 0.02 88 1016.6
20260905142839 84 256 1.0 6.0 0.00 0.55 0.02 89 1016.6
20260905142340 83 250 1.0 6.0 0.00 0.55 0.02 88 1016.6
20260905141842 83 252 3.0 6.0 0.00 0.55 0.02 89 1016.6
20260905141345 83 223 1.0 6.0 0.00 0.55 0.02 90 1016.5
20260905140826 82 238 1.0 6.0 0.00 0.55 0.02 91 1016.6
20260905140326 82 295 1.0 3.0 0.00 0.55 0.02 92 1016.6
20260905135847 82 250 1.0 4.0 0.00 0.55 0.02 93 1016.7
20260905135325 81 250 1.0 4.0 0.00 0.55 0.02 94 1016.6
20260905134825 81 265 1.0 7.0 0.00 0.55 0.02 95 1016.6
20260905134324 80 253 2.0 7.0 0.00 0.55 0.02 96 1016.5
20260905133824 80 259 1.0 4.0 0.00 0.55 0.02 97 1016.5